Washington, PA

11:45 AM EST on December 09, 2019 (GMT -0500)
Washington County

Weather History for KAFJ - October, 2019

Change the Weather History Date:

Wednesday, October 23, 2019

  Actual Average Record
Temperature  
Mean Temperature 49 °F -  
Max Temperature 57 °F 57 °F 78 °F (2007)
Min Temperature 41 °F 37 °F 21 °F (1997)
Degree Days  
Heating Degree Days 16    
Moisture  
Dew Point 36 °F    
Average Humidity 66    
Maximum Humidity 96    
Minimum Humidity 36    
Precipitation  
Precipitation 0.00 in - - ()
Sea Level Pressure  
Sea Level Pressure 30.10 in    
Wind  
Wind Speed 7 mph ()    
Max Wind Speed 22 mph    
Max Gust Speed 26 mph    
Visibility 10.0 miles    
Events      
Averages and records for this station are not official NWS values.
T = Trace of Precipitation, MM = Missing Value Source: Averaged Metar Reports

Daily Weather History Graph

Daily Weather History Graph

Search for Another Location

Airport or City:

Astronomy

Oct. 23, 2019 Rise Set
Actual Time 7:40 AM EDT 6:30 PM EDT
Civil Twilight 7:12 AM EDT 6:57 PM EDT
Nautical Twilight 6:40 AM EDT 7:29 PM EDT
Astronomical Twilight 6:09 AM EDT 8:00 PM EDT
Moon 1:56 AM EDT (10/23) 4:20 PM EDT (10/23)
Length of Visible Light 11h 45m
Length of Day
10h 50m
Waning Crescent, 27% of the Moon is Illuminated
Oct 23
Waning Crescent
Oct 27
New
Nov 4
First Quarter
Nov 12
Full
Nov 19
Last Quarter

Hourly Weather History & Observations

Time (EDT) Temp. Windchill Dew Point Humidity Pressure Visibility Wind Dir Wind Speed Gust Speed Precip Events Conditions
12:56 AM 48.0 °F - 42.1 °F 80% 29.93 in 10.0 mi West 4.6 mph - N/A   Overcast
1:56 AM 46.9 °F - 42.1 °F 83% 29.94 in 10.0 mi WSW 3.5 mph - N/A   Overcast
3:56 AM 43.0 °F 41.3 °F 41.0 °F 93% 29.97 in 10.0 mi SSW 3.5 mph - N/A   Partly Cloudy
4:56 AM 41.0 °F 38.0 °F 39.9 °F 96% 29.99 in 10.0 mi SSW 4.6 mph - N/A   Clear
5:56 AM 43.0 °F 40.3 °F 39.9 °F 89% 30.01 in 10.0 mi SSW 4.6 mph - N/A   Clear
6:56 AM 42.1 °F 39.2 °F 39.0 °F 89% 30.03 in 10.0 mi SSW 4.6 mph - N/A   Clear
7:56 AM 44.1 °F 41.5 °F 39.9 °F 85% 30.04 in 10.0 mi SW 4.6 mph - N/A   Clear
8:56 AM 46.0 °F 41.9 °F 41.0 °F 83% 30.08 in 10.0 mi SSW 8.1 mph - N/A   Clear
9:56 AM 48.9 °F - 39.9 °F 71% 30.10 in 10.0 mi SW 11.5 mph - N/A   Clear
10:56 AM 52.0 °F - 37.9 °F 59% 30.11 in 10.0 mi WSW 6.9 mph - N/A   Clear
11:56 AM 54.0 °F - 35.1 °F 49% 30.12 in 10.0 mi West 21.9 mph 26.5 mph N/A   Partly Cloudy
12:56 PM 55.0 °F - 32.0 °F 42% 30.13 in 10.0 mi West 17.3 mph 24.2 mph N/A   Partly Cloudy
1:56 PM 55.9 °F - 30.9 °F 39% 30.13 in 10.0 mi West 19.6 mph 25.3 mph N/A   Clear
2:56 PM 57.0 °F - 30.9 °F 37% 30.14 in 10.0 mi WSW 15.0 mph 21.9 mph N/A   Clear
3:56 PM 57.0 °F - 30.9 °F 37% 30.14 in 10.0 mi West 16.1 mph 23.0 mph N/A   Clear
4:56 PM 57.0 °F - 30.0 °F 36% 30.17 in 10.0 mi SW 10.4 mph - N/A   Clear
5:56 PM 55.9 °F - 30.0 °F 37% 30.17 in 10.0 mi WSW 8.1 mph - N/A   Clear
6:56 PM 51.1 °F - 32.0 °F 48% 30.19 in 10.0 mi Calm Calm - N/A   Clear
7:56 PM 44.1 °F 40.8 °F 35.1 °F 71% 30.21 in 10.0 mi SSW 5.8 mph - N/A   Clear
8:56 PM 43.0 °F 39.5 °F 35.1 °F 74% 30.22 in 10.0 mi SSW 5.8 mph - N/A   Clear
9:56 PM 42.1 °F 39.2 °F 34.0 °F 73% 30.22 in 10.0 mi SSW 4.6 mph - N/A   Clear
11:56 PM 41.0 °F 37.1 °F 34.0 °F 76% 30.23 in 10.0 mi SSW 5.8 mph - N/A   Clear